Year,Month,Day,Hour,Minute,Value (Times are PST for temperature in C)
2018,04,20,00,00,8.50
2018,04,20,00,01,8.50
2018,04,20,00,02,8.50
2018,04,20,00,03,8.50
2018,04,20,00,04,8.50
2018,04,20,00,05,8.50
2018,04,20,00,06,8.50
2018,04,20,00,07,8.50
2018,04,20,00,08,8.50
2018,04,20,00,09,8.50
2018,04,20,00,10,8.50
2018,04,20,00,11,8.50
2018,04,20,00,12,8.50
2018,04,20,00,13,8.50
2018,04,20,00,14,8.50
2018,04,20,00,15,8.50
2018,04,20,00,16,8.50
2018,04,20,00,17,8.50
2018,04,20,00,18,8.50
2018,04,20,00,19,8.50
2018,04,20,00,20,8.50
2018,04,20,00,21,8.50
2018,04,20,00,22,8.50
2018,04,20,00,23,8.50
2018,04,20,00,24,8.40
2018,04,20,00,25,8.40
2018,04,20,00,26,8.40
2018,04,20,00,27,8.40
2018,04,20,00,28,8.40
2018,04,20,00,29,8.40
2018,04,20,00,30,8.40
2018,04,20,00,31,8.40
2018,04,20,00,32,8.40
2018,04,20,00,33,8.30
2018,04,20,00,34,8.30
2018,04,20,00,35,8.30
2018,04,20,00,36,8.30
2018,04,20,00,37,8.30
2018,04,20,00,38,8.30
2018,04,20,00,39,8.30
2018,04,20,00,40,8.30
2018,04,20,00,41,8.30
2018,04,20,00,42,8.30
2018,04,20,00,43,8.30
2018,04,20,00,44,8.30
2018,04,20,00,45,8.30
2018,04,20,00,46,8.30
2018,04,20,00,47,8.30
2018,04,20,00,48,8.30
2018,04,20,00,49,8.30
2018,04,20,00,50,8.30
2018,04,20,00,51,8.30
2018,04,20,00,52,8.30
2018,04,20,00,53,8.30
2018,04,20,00,54,8.30
2018,04,20,00,55,8.30
2018,04,20,00,56,8.30
2018,04,20,00,57,8.30
2018,04,20,00,58,8.30
2018,04,20,00,59,8.30
2018,04,20,01,00,8.30
2018,04,20,01,01,8.30
2018,04,20,01,02,8.30
2018,04,20,01,03,8.30
2018,04,20,01,04,8.30
2018,04,20,01,05,8.30
2018,04,20,01,06,8.30
2018,04,20,01,07,8.30
2018,04,20,01,08,8.30
2018,04,20,01,09,8.40
2018,04,20,01,10,8.30
2018,04,20,01,11,8.30
2018,04,20,01,12,8.30
2018,04,20,01,13,8.30
2018,04,20,01,14,8.30
2018,04,20,01,15,8.40
2018,04,20,01,16,8.40
2018,04,20,01,17,8.40
2018,04,20,01,18,8.40
2018,04,20,01,19,8.40
2018,04,20,01,20,8.50
2018,04,20,01,21,8.50
2018,04,20,01,22,8.50
2018,04,20,01,23,8.60
2018,04,20,01,24,8.60
2018,04,20,01,25,8.60
2018,04,20,01,26,8.60
2018,04,20,01,27,8.60
2018,04,20,01,28,8.60
2018,04,20,01,29,8.70
2018,04,20,01,30,8.70
2018,04,20,01,31,8.70
2018,04,20,01,32,8.70
2018,04,20,01,33,8.70
2018,04,20,01,34,8.70
2018,04,20,01,35,8.70
2018,04,20,01,36,8.80
2018,04,20,01,37,8.70
2018,04,20,01,38,8.70
2018,04,20,01,39,8.70
2018,04,20,01,40,8.70
2018,04,20,01,41,8.70
2018,04,20,01,42,8.70
2018,04,20,01,43,8.70
2018,04,20,01,44,8.70
2018,04,20,01,45,8.70
2018,04,20,01,46,8.60
2018,04,20,01,47,8.60
2018,04,20,01,48,8.60
2018,04,20,01,49,8.50
2018,04,20,01,50,8.50
2018,04,20,01,51,8.40
2018,04,20,01,52,8.40
2018,04,20,01,53,8.40
2018,04,20,01,54,8.40
2018,04,20,01,55,8.30
2018,04,20,01,56,8.30
2018,04,20,01,57,8.30
2018,04,20,01,58,8.30
2018,04,20,01,59,8.20
2018,04,20,02,00,8.20
2018,04,20,02,01,8.20
2018,04,20,02,02,8.20
2018,04,20,02,03,8.20
2018,04,20,02,04,8.10
2018,04,20,02,05,8.10
2018,04,20,02,06,8.10
2018,04,20,02,07,8.10
2018,04,20,02,08,8.10
2018,04,20,02,09,8.10
2018,04,20,02,10,8.10
2018,04,20,02,11,8.10
2018,04,20,02,12,8.10
2018,04,20,02,13,8.10
2018,04,20,02,14,8.10
2018,04,20,02,15,8.10
2018,04,20,02,16,8.10
2018,04,20,02,17,8.10
2018,04,20,02,18,8.10
2018,04,20,02,19,8.00
2018,04,20,02,20,8.10
2018,04,20,02,21,8.10
2018,04,20,02,22,8.10
2018,04,20,02,23,8.10
2018,04,20,02,24,8.10
2018,04,20,02,25,8.10
2018,04,20,02,26,8.10
2018,04,20,02,27,8.10
2018,04,20,02,28,8.00
2018,04,20,02,29,8.00
2018,04,20,02,30,8.00
2018,04,20,02,31,8.00
2018,04,20,02,32,8.00
2018,04,20,02,33,8.00
2018,04,20,02,34,8.00
2018,04,20,02,35,8.00
2018,04,20,02,36,8.00
2018,04,20,02,37,8.00
2018,04,20,02,38,8.00
2018,04,20,02,39,8.00
2018,04,20,02,40,8.00
2018,04,20,02,41,8.00
2018,04,20,02,42,8.00
2018,04,20,02,43,8.00
2018,04,20,02,44,8.00
2018,04,20,02,45,8.00
2018,04,20,02,46,8.00
2018,04,20,02,47,8.00
2018,04,20,02,48,8.00
2018,04,20,02,49,8.00
2018,04,20,02,50,8.00
2018,04,20,02,51,8.00
2018,04,20,02,52,8.00
2018,04,20,02,53,8.00
2018,04,20,02,54,8.00
2018,04,20,02,55,8.00
2018,04,20,02,56,8.00
2018,04,20,02,57,8.00
2018,04,20,02,58,7.90
2018,04,20,02,59,7.90
2018,04,20,03,00,7.90
2018,04,20,03,01,7.90
2018,04,20,03,02,7.90
2018,04,20,03,03,7.90
2018,04,20,03,04,7.80
2018,04,20,03,05,7.90
2018,04,20,03,06,7.90
2018,04,20,03,07,7.80
2018,04,20,03,08,7.90
2018,04,20,03,09,7.90
2018,04,20,03,10,7.90
2018,04,20,03,11,7.90
2018,04,20,03,12,7.90
2018,04,20,03,13,7.90
2018,04,20,03,14,8.00
2018,04,20,03,15,8.00
2018,04,20,03,16,8.10
2018,04,20,03,17,8.10
2018,04,20,03,18,8.10
2018,04,20,03,19,8.10
2018,04,20,03,20,8.20
2018,04,20,03,21,8.20
2018,04,20,03,22,8.20
2018,04,20,03,23,8.20
2018,04,20,03,24,8.20
2018,04,20,03,25,8.20
2018,04,20,03,26,8.20
2018,04,20,03,27,8.10
2018,04,20,03,28,8.10
2018,04,20,03,29,8.10
2018,04,20,03,30,8.10
2018,04,20,03,31,8.00
2018,04,20,03,32,8.00
2018,04,20,03,33,8.00
2018,04,20,03,34,8.00
2018,04,20,03,35,8.00
2018,04,20,03,36,8.00
2018,04,20,03,37,7.90
2018,04,20,03,38,8.00
2018,04,20,03,39,8.00
2018,04,20,03,40,8.00
2018,04,20,03,41,8.00
2018,04,20,03,42,8.00
2018,04,20,03,43,8.00
2018,04,20,03,44,8.00
2018,04,20,03,45,8.10
2018,04,20,03,46,8.00
2018,04,20,03,47,8.00
2018,04,20,03,48,8.00
2018,04,20,03,49,8.00
2018,04,20,03,50,8.00
2018,04,20,03,51,8.00
2018,04,20,03,52,8.00
2018,04,20,03,53,8.00
2018,04,20,03,54,8.00
2018,04,20,03,55,8.00
2018,04,20,03,56,8.00
2018,04,20,03,57,8.00
2018,04,20,03,58,8.00
2018,04,20,03,59,8.00
2018,04,20,04,00,8.00
2018,04,20,04,01,8.00
2018,04,20,04,02,8.00
2018,04,20,04,03,8.00
2018,04,20,04,04,8.00
2018,04,20,04,05,8.00
2018,04,20,04,06,8.00
2018,04,20,04,07,8.00
2018,04,20,04,08,8.00
2018,04,20,04,09,8.00
2018,04,20,04,10,8.00
2018,04,20,04,11,8.00
2018,04,20,04,12,7.90
2018,04,20,04,13,7.90
2018,04,20,04,14,7.90
2018,04,20,04,15,7.90
2018,04,20,04,16,7.90
2018,04,20,04,17,7.80
2018,04,20,04,18,7.80
2018,04,20,04,19,7.80
2018,04,20,04,20,7.70
2018,04,20,04,21,7.70
2018,04,20,04,22,7.70
2018,04,20,04,23,7.70
2018,04,20,04,24,7.60
2018,04,20,04,25,7.60
2018,04,20,04,26,7.60
2018,04,20,04,27,7.60
2018,04,20,04,28,7.50
2018,04,20,04,29,7.50
2018,04,20,04,30,7.40
2018,04,20,04,31,7.40
2018,04,20,04,32,7.30
2018,04,20,04,33,7.30
2018,04,20,04,34,7.30
2018,04,20,04,35,7.30
2018,04,20,04,36,7.20
2018,04,20,04,37,7.20
2018,04,20,04,38,7.20
2018,04,20,04,39,7.20
2018,04,20,04,40,7.20
2018,04,20,04,41,7.10
2018,04,20,04,42,7.10
2018,04,20,04,43,7.10
2018,04,20,04,44,7.10
2018,04,20,04,45,7.10
2018,04,20,04,46,7.10
2018,04,20,04,47,7.00
2018,04,20,04,48,7.00
2018,04,20,04,49,7.00
2018,04,20,04,50,7.00
2018,04,20,04,51,6.90
2018,04,20,04,52,6.90
2018,04,20,04,53,6.90
2018,04,20,04,54,6.90
2018,04,20,04,55,6.80
2018,04,20,04,56,6.80
2018,04,20,04,57,6.80
2018,04,20,04,58,6.80
2018,04,20,04,59,6.80
2018,04,20,05,00,6.80
2018,04,20,05,01,6.70
2018,04,20,05,02,6.70
2018,04,20,05,03,6.70
2018,04,20,05,04,6.70
2018,04,20,05,05,6.60
2018,04,20,05,06,6.60
2018,04,20,05,07,6.60
2018,04,20,05,08,6.60
2018,04,20,05,09,6.60
2018,04,20,05,10,6.60
2018,04,20,05,11,6.50
2018,04,20,05,12,6.50
2018,04,20,05,13,6.50
2018,04,20,05,14,6.50
2018,04,20,05,15,6.50
2018,04,20,05,16,6.50
2018,04,20,05,17,6.40
2018,04,20,05,18,6.40
2018,04,20,05,19,6.40
2018,04,20,05,20,6.40
2018,04,20,05,21,6.40
2018,04,20,05,22,6.40
2018,04,20,05,23,6.40
2018,04,20,05,24,6.40
2018,04,20,05,25,6.40
2018,04,20,05,26,6.30
2018,04,20,05,27,6.30
2018,04,20,05,28,6.30
2018,04,20,05,29,6.30
2018,04,20,05,30,6.30
2018,04,20,05,31,6.30
2018,04,20,05,32,6.30
2018,04,20,05,33,6.30
2018,04,20,05,34,6.30
2018,04,20,05,35,6.30
2018,04,20,05,36,6.30
2018,04,20,05,37,6.30
2018,04,20,05,38,6.30
2018,04,20,05,39,6.30
2018,04,20,05,40,6.30
2018,04,20,05,41,6.30
2018,04,20,05,42,6.30
2018,04,20,05,43,6.30
2018,04,20,05,44,6.30
2018,04,20,05,45,6.30
2018,04,20,05,46,6.30
2018,04,20,05,47,6.30
2018,04,20,05,48,6.20
2018,04,20,05,49,6.20
2018,04,20,05,50,6.20
2018,04,20,05,51,6.20
2018,04,20,05,52,6.20
2018,04,20,05,53,6.20
2018,04,20,05,54,6.20
2018,04,20,05,55,6.20
2018,04,20,05,56,6.20
2018,04,20,05,57,6.20
2018,04,20,05,58,6.20
2018,04,20,05,59,6.20
2018,04,20,06,00,6.20
2018,04,20,06,01,6.20
2018,04,20,06,02,6.20
2018,04,20,06,03,6.20
2018,04,20,06,04,6.20
2018,04,20,06,05,6.20
2018,04,20,06,06,6.10
2018,04,20,06,07,6.10
2018,04,20,06,08,6.10
2018,04,20,06,09,6.10
2018,04,20,06,10,6.10
2018,04,20,06,11,6.00
2018,04,20,06,12,6.00
2018,04,20,06,13,6.00
2018,04,20,06,14,6.00
2018,04,20,06,15,6.00
2018,04,20,06,16,5.90
2018,04,20,06,17,5.90
2018,04,20,06,18,5.90
2018,04,20,06,19,5.90
2018,04,20,06,20,5.80
2018,04,20,06,21,5.80
2018,04,20,06,22,5.80
2018,04,20,06,23,5.80
2018,04,20,06,24,5.80
2018,04,20,06,25,5.80
2018,04,20,06,26,5.90
2018,04,20,06,27,5.90
2018,04,20,06,28,5.90
2018,04,20,06,29,5.90
2018,04,20,06,30,5.90
2018,04,20,06,31,5.90
2018,04,20,06,32,5.90
2018,04,20,06,33,5.80
2018,04,20,06,34,5.90
2018,04,20,06,35,5.90
2018,04,20,06,36,5.90
2018,04,20,06,37,5.90
2018,04,20,06,38,5.90
2018,04,20,06,39,5.90
2018,04,20,06,40,5.90
2018,04,20,06,41,5.90
2018,04,20,06,42,5.90
2018,04,20,06,43,5.90
2018,04,20,06,44,5.90
2018,04,20,06,45,5.90
2018,04,20,06,46,5.90
2018,04,20,06,47,5.90
2018,04,20,06,48,5.90
2018,04,20,06,49,5.90
2018,04,20,06,50,5.90
2018,04,20,06,51,5.90
2018,04,20,06,52,5.90
2018,04,20,06,53,6.00
2018,04,20,06,54,6.00
2018,04,20,06,55,6.00
2018,04,20,06,56,6.00
2018,04,20,06,57,6.00
2018,04,20,06,58,6.00
2018,04,20,06,59,6.10
2018,04,20,07,00,6.10
2018,04,20,07,01,6.10
2018,04,20,07,02,6.10
2018,04,20,07,03,6.10
2018,04,20,07,04,6.20
2018,04,20,07,05,6.20
2018,04,20,07,06,6.20
2018,04,20,07,07,6.20
2018,04,20,07,08,6.20
2018,04,20,07,09,6.30
2018,04,20,07,10,6.30
2018,04,20,07,11,6.30
2018,04,20,07,12,6.30
2018,04,20,07,13,6.40
2018,04,20,07,14,6.40
2018,04,20,07,15,6.40
2018,04,20,07,16,6.40
2018,04,20,07,17,6.40
2018,04,20,07,18,6.40
2018,04,20,07,19,6.40
2018,04,20,07,20,6.40
2018,04,20,07,21,6.40
2018,04,20,07,22,6.40
2018,04,20,07,23,6.40
2018,04,20,07,24,6.40
2018,04,20,07,25,6.40
2018,04,20,07,26,6.50
2018,04,20,07,27,6.50
2018,04,20,07,28,6.50
2018,04,20,07,29,6.50
2018,04,20,07,30,6.50
2018,04,20,07,31,6.50
2018,04,20,07,32,6.60
2018,04,20,07,33,6.50
2018,04,20,07,34,6.60
2018,04,20,07,35,6.60
2018,04,20,07,36,6.60
2018,04,20,07,37,6.60
2018,04,20,07,38,6.60
2018,04,20,07,39,6.60
2018,04,20,07,40,6.60
2018,04,20,07,41,6.60
2018,04,20,07,42,6.70
2018,04,20,07,43,6.70
2018,04,20,07,44,6.70
2018,04,20,07,45,6.80
2018,04,20,07,46,6.80
2018,04,20,07,47,6.90
2018,04,20,07,48,6.90
2018,04,20,07,49,6.90
2018,04,20,07,50,7.00
2018,04,20,07,51,7.00
2018,04,20,07,52,7.10
2018,04,20,07,53,7.10
2018,04,20,07,54,7.20
2018,04,20,07,55,7.20
2018,04,20,07,56,7.20
2018,04,20,07,57,7.20
2018,04,20,07,58,7.20
2018,04,20,07,59,7.20
2018,04,20,08,00,7.30
2018,04,20,08,01,7.30
2018,04,20,08,02,7.30
2018,04,20,08,03,7.30
2018,04,20,08,04,7.30
2018,04,20,08,05,7.30
2018,04,20,08,06,7.30
2018,04,20,08,07,7.40
2018,04,20,08,08,7.40
2018,04,20,08,09,7.40
2018,04,20,08,10,7.50
2018,04,20,08,11,7.50
2018,04,20,08,12,7.50
2018,04,20,08,13,7.50
2018,04,20,08,14,7.50
2018,04,20,08,15,7.50
2018,04,20,08,16,7.50
2018,04,20,08,17,7.50
2018,04,20,08,18,7.50
2018,04,20,08,19,7.60
2018,04,20,08,20,7.60
2018,04,20,08,21,7.60
2018,04,20,08,22,7.60
2018,04,20,08,23,7.60
2018,04,20,08,24,7.60
2018,04,20,08,25,7.70
2018,04,20,08,26,7.70
2018,04,20,08,27,7.70
2018,04,20,08,28,7.80
2018,04,20,08,29,7.80
2018,04,20,08,30,7.90
2018,04,20,08,31,7.90
2018,04,20,08,32,7.90
2018,04,20,08,33,8.00
2018,04,20,08,34,8.10
2018,04,20,08,35,8.10
2018,04,20,08,36,8.20
2018,04,20,08,37,8.20
2018,04,20,08,38,8.20
2018,04,20,08,39,8.30
2018,04,20,08,40,8.30
2018,04,20,08,41,8.30
2018,04,20,08,42,8.30
2018,04,20,08,43,8.30
2018,04,20,08,44,8.40
2018,04,20,08,45,8.40
2018,04,20,08,46,8.40
2018,04,20,08,47,8.40
2018,04,20,08,48,8.50
2018,04,20,08,49,8.50
2018,04,20,08,50,8.60
2018,04,20,08,51,8.60
2018,04,20,08,52,8.70
2018,04,20,08,53,8.80
2018,04,20,08,54,8.80
2018,04,20,08,55,8.90
2018,04,20,08,56,8.90
2018,04,20,08,57,9.00
2018,04,20,08,58,9.00
2018,04,20,08,59,9.00
2018,04,20,09,00,9.00
2018,04,20,09,01,9.10
2018,04,20,09,02,9.10
2018,04,20,09,03,9.20
2018,04,20,09,04,9.20
2018,04,20,09,05,9.30
2018,04,20,09,06,9.40
2018,04,20,09,07,9.50
2018,04,20,09,08,9.60
2018,04,20,09,09,9.70
2018,04,20,09,10,9.80
2018,04,20,09,11,9.90
2018,04,20,09,12,10.00
2018,04,20,09,13,10.00
2018,04,20,09,14,10.10
2018,04,20,09,15,10.10
2018,04,20,09,16,10.10
2018,04,20,09,17,10.20
2018,04,20,09,18,10.20
2018,04,20,09,19,10.20
2018,04,20,09,20,10.30
2018,04,20,09,21,10.30
2018,04,20,09,22,10.30
2018,04,20,09,23,10.40
2018,04,20,09,24,10.40
2018,04,20,09,25,10.40
2018,04,20,09,26,10.40
2018,04,20,09,27,10.40
2018,04,20,09,28,10.40
2018,04,20,09,29,10.50
2018,04,20,09,30,10.50
2018,04,20,09,31,10.50
2018,04,20,09,32,10.60
2018,04,20,09,33,10.60
2018,04,20,09,34,10.60
2018,04,20,09,35,10.60
2018,04,20,09,36,10.60
2018,04,20,09,37,10.60
2018,04,20,09,38,10.60
2018,04,20,09,39,10.60
2018,04,20,09,40,10.60
2018,04,20,09,41,10.60
2018,04,20,09,42,10.60
2018,04,20,09,43,10.60
2018,04,20,09,44,10.60
2018,04,20,09,45,10.60
2018,04,20,09,46,10.60
2018,04,20,09,47,10.70
2018,04,20,09,48,10.80
2018,04,20,09,49,10.90
2018,04,20,09,50,10.90
2018,04,20,09,51,10.90
2018,04,20,09,52,10.90
2018,04,20,09,53,10.90
2018,04,20,09,54,11.00
2018,04,20,09,55,11.00
2018,04,20,09,56,11.00
2018,04,20,09,57,11.00
2018,04,20,09,58,11.10
2018,04,20,09,59,11.20
2018,04,20,10,00,11.30
2018,04,20,10,01,11.30
2018,04,20,10,02,11.40
2018,04,20,10,03,11.40
2018,04,20,10,04,11.40
2018,04,20,10,05,11.40
2018,04,20,10,06,11.40
2018,04,20,10,07,11.40
2018,04,20,10,08,11.30
2018,04,20,10,09,11.30
2018,04,20,10,10,11.40
2018,04,20,10,11,11.40
2018,04,20,10,12,11.40
2018,04,20,10,13,11.50
2018,04,20,10,14,11.50
2018,04,20,10,15,11.50
2018,04,20,10,16,11.50
2018,04,20,10,17,11.50
2018,04,20,10,18,11.40
2018,04,20,10,19,11.50
2018,04,20,10,20,11.50
2018,04,20,10,21,11.50
2018,04,20,10,22,11.50
2018,04,20,10,23,11.40
2018,04,20,10,24,11.30
2018,04,20,10,25,11.20
2018,04,20,10,26,11.10
2018,04,20,10,27,11.00
2018,04,20,10,28,11.00
2018,04,20,10,29,10.90
2018,04,20,10,30,10.90
2018,04,20,10,31,10.90
2018,04,20,10,32,10.90
2018,04,20,10,33,11.00
2018,04,20,10,34,11.10
2018,04,20,10,35,11.20
2018,04,20,10,36,11.30
2018,04,20,10,37,11.40
2018,04,20,10,38,11.30
2018,04,20,10,39,11.30
2018,04,20,10,40,11.30
2018,04,20,10,41,11.20
2018,04,20,10,42,11.20
2018,04,20,10,43,11.20
2018,04,20,10,44,11.20
2018,04,20,10,45,11.20
2018,04,20,10,46,11.20
2018,04,20,10,47,11.20
2018,04,20,10,48,11.20
2018,04,20,10,49,11.20
2018,04,20,10,50,11.20
2018,04,20,10,51,11.10
2018,04,20,10,52,11.10
2018,04,20,10,53,11.10
2018,04,20,10,54,11.20
2018,04,20,10,55,11.20
2018,04,20,10,56,11.30
2018,04,20,10,57,11.30
2018,04,20,10,58,11.30
2018,04,20,10,59,11.20
2018,04,20,11,00,11.10
2018,04,20,11,01,11.00
2018,04,20,11,02,11.00
2018,04,20,11,03,11.00
2018,04,20,11,04,10.90
2018,04,20,11,05,10.90
2018,04,20,11,06,10.90
2018,04,20,11,07,10.80
2018,04,20,11,08,10.80
2018,04,20,11,09,10.80
2018,04,20,11,10,10.80
2018,04,20,11,11,10.80
2018,04,20,11,12,10.80
2018,04,20,11,13,10.80
2018,04,20,11,14,10.70
2018,04,20,11,15,10.80
2018,04,20,11,16,10.80
2018,04,20,11,17,10.80
2018,04,20,11,18,10.80
2018,04,20,11,19,10.80
2018,04,20,11,20,10.80
2018,04,20,11,21,10.70
2018,04,20,11,22,10.70
2018,04,20,11,23,10.80
2018,04,20,11,24,10.80
2018,04,20,11,25,10.80
2018,04,20,11,26,10.80
2018,04,20,11,27,10.80
2018,04,20,11,28,10.90
2018,04,20,11,29,10.90
2018,04,20,11,30,10.90
2018,04,20,11,31,10.90
2018,04,20,11,32,10.90
2018,04,20,11,33,10.80
2018,04,20,11,34,10.80
2018,04,20,11,35,10.70
2018,04,20,11,36,10.70
2018,04,20,11,37,10.80
2018,04,20,11,38,10.80
2018,04,20,11,39,10.80
2018,04,20,11,40,10.80
2018,04,20,11,41,10.90
2018,04,20,11,42,11.00
2018,04,20,11,43,11.00
2018,04,20,11,44,10.90
2018,04,20,11,45,10.90
2018,04,20,11,46,11.00
2018,04,20,11,47,11.00
2018,04,20,11,48,11.00
2018,04,20,11,49,11.00
2018,04,20,11,50,10.90
2018,04,20,11,51,10.90
2018,04,20,11,52,10.90
2018,04,20,11,53,11.00
2018,04,20,11,54,11.00
2018,04,20,11,55,11.00
2018,04,20,11,56,11.00
2018,04,20,11,57,11.00
2018,04,20,11,58,11.00
2018,04,20,11,59,10.90
2018,04,20,12,00,10.90
2018,04,20,12,01,10.90
2018,04,20,12,02,10.90
2018,04,20,12,03,10.90
2018,04,20,12,04,10.90
2018,04,20,12,05,10.90
2018,04,20,12,06,10.90
2018,04,20,12,07,11.00
2018,04,20,12,08,11.00
2018,04,20,12,09,11.00
2018,04,20,12,10,10.90
2018,04,20,12,11,10.90
2018,04,20,12,12,11.00
2018,04,20,12,13,11.00
2018,04,20,12,14,11.10
2018,04,20,12,15,11.20
2018,04,20,12,16,11.30
2018,04,20,12,17,11.40
2018,04,20,12,18,11.50
2018,04,20,12,19,11.60
2018,04,20,12,20,11.60
2018,04,20,12,21,11.50
2018,04,20,12,22,11.50
2018,04,20,12,23,11.40
2018,04,20,12,24,11.40
2018,04,20,12,25,11.40
2018,04,20,12,26,11.40
2018,04,20,12,27,11.40
2018,04,20,12,28,11.50
2018,04,20,12,29,11.60
2018,04,20,12,30,11.60
2018,04,20,12,31,11.70
2018,04,20,12,32,11.70
2018,04,20,12,33,11.70
2018,04,20,12,34,11.70
2018,04,20,12,35,11.60
2018,04,20,12,36,11.60
2018,04,20,12,37,11.60
2018,04,20,12,38,11.50
2018,04,20,12,39,11.50
2018,04,20,12,40,11.60
2018,04,20,12,41,11.60
2018,04,20,12,42,11.60
2018,04,20,12,43,11.60
2018,04,20,12,44,11.60
2018,04,20,12,45,11.60
2018,04,20,12,46,11.60
2018,04,20,12,47,11.70
2018,04,20,12,48,11.70
2018,04,20,12,49,11.70
2018,04,20,12,50,11.80
2018,04,20,12,51,11.90
2018,04,20,12,52,11.90
2018,04,20,12,53,12.00
2018,04,20,12,54,12.00
2018,04,20,12,55,12.10
2018,04,20,12,56,12.30
2018,04,20,12,57,12.30
2018,04,20,12,58,12.40
2018,04,20,12,59,12.40
2018,04,20,13,00,12.40
2018,04,20,13,01,12.40
2018,04,20,13,02,12.40
2018,04,20,13,03,12.30
2018,04,20,13,04,12.30
2018,04,20,13,05,12.40
2018,04,20,13,06,12.30
2018,04,20,13,07,12.30
2018,04,20,13,08,12.20
2018,04,20,13,09,12.20
2018,04,20,13,10,12.20
2018,04,20,13,11,12.20
2018,04,20,13,12,12.20
2018,04,20,13,13,12.30
2018,04,20,13,14,12.40
2018,04,20,13,15,12.40
2018,04,20,13,16,12.40
2018,04,20,13,17,12.50
2018,04,20,13,18,12.50
2018,04,20,13,19,12.40
2018,04,20,13,20,12.40
2018,04,20,13,21,12.30
2018,04,20,13,22,12.30
2018,04,20,13,23,12.20
2018,04,20,13,24,12.20
2018,04,20,13,25,12.20
2018,04,20,13,26,12.20
2018,04,20,13,27,12.10
2018,04,20,13,28,12.10
2018,04,20,13,29,12.00
2018,04,20,13,30,12.00
2018,04,20,13,31,12.00
2018,04,20,13,32,12.00
2018,04,20,13,33,12.00
2018,04,20,13,34,11.90
2018,04,20,13,35,11.90
2018,04,20,13,36,11.90
2018,04,20,13,37,11.80
2018,04,20,13,38,11.80
2018,04,20,13,39,11.80
2018,04,20,13,40,11.80
2018,04,20,13,41,11.80
2018,04,20,13,42,11.80
2018,04,20,13,43,11.80
2018,04,20,13,44,11.80
2018,04,20,13,45,11.80
2018,04,20,13,46,11.80
2018,04,20,13,47,11.80
2018,04,20,13,48,11.80
2018,04,20,13,49,11.80
2018,04,20,13,50,11.90
2018,04,20,13,51,11.90
2018,04,20,13,52,11.90
2018,04,20,13,53,11.90
2018,04,20,13,54,11.90
2018,04,20,13,55,11.90
2018,04,20,13,56,11.90
2018,04,20,13,57,11.90
2018,04,20,13,58,11.90
2018,04,20,13,59,11.90
2018,04,20,14,00,11.90
2018,04,20,14,01,11.90
2018,04,20,14,02,11.90
2018,04,20,14,03,11.90
2018,04,20,14,04,11.90
2018,04,20,14,05,11.80
2018,04,20,14,06,11.80
2018,04,20,14,07,11.70
2018,04,20,14,08,11.60
2018,04,20,14,09,11.60
2018,04,20,14,10,11.50
2018,04,20,14,11,11.50
2018,04,20,14,12,11.50
2018,04,20,14,13,11.50
2018,04,20,14,14,11.50
2018,04,20,14,15,11.60
2018,04,20,14,16,11.60
2018,04,20,14,17,11.50
2018,04,20,14,18,11.50
2018,04,20,14,19,11.50
2018,04,20,14,20,11.40
2018,04,20,14,21,11.40
2018,04,20,14,22,11.30
2018,04,20,14,23,11.40
2018,04,20,14,24,11.40
2018,04,20,14,25,11.40
2018,04,20,14,26,11.40
2018,04,20,14,27,11.30
2018,04,20,14,28,11.30
2018,04,20,14,29,11.30
2018,04,20,14,30,11.30
2018,04,20,14,31,11.30
2018,04,20,14,32,11.30
2018,04,20,14,33,11.30
2018,04,20,14,34,11.30
2018,04,20,14,35,11.30
2018,04,20,14,36,11.30
2018,04,20,14,37,11.30
2018,04,20,14,38,11.30
2018,04,20,14,39,11.30
2018,04,20,14,40,11.30
2018,04,20,14,41,11.30
2018,04,20,14,42,11.30
2018,04,20,14,43,11.30
2018,04,20,14,44,11.30
2018,04,20,14,45,11.30
2018,04,20,14,46,11.30
2018,04,20,14,47,11.30
2018,04,20,14,48,11.30
2018,04,20,14,49,11.30
2018,04,20,14,50,11.30
2018,04,20,14,51,11.30
2018,04,20,14,52,11.40
2018,04,20,14,53,11.40
2018,04,20,14,54,11.40
2018,04,20,14,55,11.40
2018,04,20,14,56,11.40
2018,04,20,14,57,11.40
2018,04,20,14,58,11.40
2018,04,20,14,59,11.40
2018,04,20,15,00,11.50
2018,04,20,15,01,11.60
2018,04,20,15,02,11.60
2018,04,20,15,03,11.70
2018,04,20,15,04,11.70
2018,04,20,15,05,11.80
2018,04,20,15,06,11.80
2018,04,20,15,07,11.90
2018,04,20,15,08,11.90
2018,04,20,15,09,11.80
2018,04,20,15,10,11.80
2018,04,20,15,11,11.70
2018,04,20,15,12,11.60
2018,04,20,15,13,11.60
2018,04,20,15,14,11.60
2018,04,20,15,15,11.60
2018,04,20,15,16,11.50
2018,04,20,15,17,11.50
2018,04,20,15,18,11.50
2018,04,20,15,19,11.50
2018,04,20,15,20,11.40
2018,04,20,15,21,11.40
2018,04,20,15,22,11.40
2018,04,20,15,23,11.30
2018,04,20,15,24,11.20
2018,04,20,15,25,11.10
2018,04,20,15,26,11.00
2018,04,20,15,27,11.00
2018,04,20,15,28,10.90
2018,04,20,15,29,10.90
2018,04,20,15,30,10.90
2018,04,20,15,31,10.90
2018,04,20,15,32,10.90
2018,04,20,15,33,10.80
2018,04,20,15,34,10.80
2018,04,20,15,35,10.70
2018,04,20,15,36,10.70
2018,04,20,15,37,10.70
2018,04,20,15,38,10.60
2018,04,20,15,39,10.60
2018,04,20,15,40,10.60
2018,04,20,15,41,10.50
2018,04,20,15,42,10.50
2018,04,20,15,43,10.50
2018,04,20,15,44,10.40
2018,04,20,15,45,10.40
2018,04,20,15,46,10.40
2018,04,20,15,47,10.40
2018,04,20,15,48,10.30
2018,04,20,15,49,10.30
2018,04,20,15,50,10.30
2018,04,20,15,51,10.30
2018,04,20,15,52,10.20
2018,04,20,15,53,10.20
2018,04,20,15,54,10.20
2018,04,20,15,55,10.20
2018,04,20,15,56,10.20
2018,04,20,15,57,10.20
2018,04,20,15,58,10.20
2018,04,20,15,59,10.20
2018,04,20,16,00,10.20
2018,04,20,16,01,10.20
2018,04,20,16,02,10.20
2018,04,20,16,03,10.20
2018,04,20,16,04,10.20
2018,04,20,16,05,10.20
2018,04,20,16,06,10.20
2018,04,20,16,07,10.20
2018,04,20,16,08,10.20
2018,04,20,16,09,10.30
2018,04,20,16,10,10.30
2018,04,20,16,11,10.30
2018,04,20,16,12,10.30
2018,04,20,16,13,10.30
2018,04,20,16,14,10.30
2018,04,20,16,15,10.30
2018,04,20,16,16,10.30
2018,04,20,16,17,10.30
2018,04,20,16,18,10.30
2018,04,20,16,19,10.40
2018,04,20,16,20,10.40
2018,04,20,16,21,10.40
2018,04,20,16,22,10.40
2018,04,20,16,23,10.50
2018,04,20,16,24,10.50
2018,04,20,16,25,10.60
2018,04,20,16,26,10.60
2018,04,20,16,27,10.60
2018,04,20,16,28,10.60
2018,04,20,16,29,10.60
2018,04,20,16,30,10.50
2018,04,20,16,31,10.50
2018,04,20,16,32,10.40
2018,04,20,16,33,10.40
2018,04,20,16,34,10.30
2018,04,20,16,35,10.30
2018,04,20,16,36,10.30
2018,04,20,16,37,10.30
2018,04,20,16,38,10.30
2018,04,20,16,39,10.30
2018,04,20,16,40,10.30
2018,04,20,16,41,10.30
2018,04,20,16,42,10.30
2018,04,20,16,43,10.30
2018,04,20,16,44,10.30
2018,04,20,16,45,10.30
2018,04,20,16,46,10.30
2018,04,20,16,47,10.30
2018,04,20,16,48,10.30
2018,04,20,16,49,10.30
2018,04,20,16,50,10.30
2018,04,20,16,51,10.30
2018,04,20,16,52,10.30
2018,04,20,16,53,10.30
2018,04,20,16,54,10.30
2018,04,20,16,55,10.30
2018,04,20,16,56,10.30
2018,04,20,16,57,10.30
2018,04,20,16,58,10.20
2018,04,20,16,59,10.30
2018,04,20,17,00,10.30
2018,04,20,17,01,10.30
2018,04,20,17,02,10.30
2018,04,20,17,03,10.30
2018,04,20,17,04,10.30
2018,04,20,17,05,10.30
2018,04,20,17,06,10.30
2018,04,20,17,07,10.20
2018,04,20,17,08,10.20
2018,04,20,17,09,10.20
2018,04,20,17,10,10.20
2018,04,20,17,11,10.20
2018,04,20,17,12,10.20
2018,04,20,17,13,10.20
2018,04,20,17,14,10.10
2018,04,20,17,15,10.10
2018,04,20,17,16,10.10
2018,04,20,17,17,10.10
2018,04,20,17,18,10.10
2018,04,20,17,19,10.10
2018,04,20,17,20,10.10
2018,04,20,17,21,10.00
2018,04,20,17,22,10.00
2018,04,20,17,23,10.00
2018,04,20,17,24,10.00
2018,04,20,17,25,10.00
2018,04,20,17,26,10.00
2018,04,20,17,27,10.00
2018,04,20,17,28,10.00
2018,04,20,17,29,10.00
2018,04,20,17,30,10.00
2018,04,20,17,31,10.00
2018,04,20,17,32,9.90
2018,04,20,17,33,9.90
2018,04,20,17,34,9.90
2018,04,20,17,35,10.00
2018,04,20,17,36,10.00
2018,04,20,17,37,10.00
2018,04,20,17,38,10.00
2018,04,20,17,39,9.90
2018,04,20,17,40,9.90
2018,04,20,17,41,9.90
2018,04,20,17,42,9.90
2018,04,20,17,43,9.80